Ukiah, CA

1:40 PM PDT on June 19, 2018 (GMT -0700)
Ukiah Municipal

Weather History for KUKI - October, 2017

Change the Weather History Date:

Wednesday, October 11, 2017

  Actual Average Record
Temperature  
Mean Temperature 56 °F 62 °F  
Max Temperature 69 °F 80 °F 98 °F (1917)
Min Temperature 43 °F 44 °F 32 °F (1930)
Degree Days  
Heating Degree Days 8 4  
Month to date heating degree days 34  
Since 1 July heating degree days 67  
Cooling Degree Days 0 1  
Month to date cooling degree days 16  
Year to date cooling degree days 829  
Growing Degree Days 6 (Base 50)    
Moisture  
Dew Point 33 °F    
Average Humidity 44    
Maximum Humidity 71    
Minimum Humidity 17    
Precipitation  
Precipitation 0.00 in 0.05 in 2.95 in (1962)
Month to date precipitation 0.00 0.20  
Year to date precipitation 34.54 24.17  
Snow  
Snow 0.00 in - - ()
Month to date snowfall 0.0  
Since 1 July snowfall 0.0  
Since 1 September snowfall 0.0  
Snow Depth 0.00 in    
Sea Level Pressure  
Sea Level Pressure 30.01 in    
Wind  
Wind Speed 7 mph (NW)    
Max Wind Speed 22 mph    
Max Gust Speed 29 mph    
Visibility 9 miles    
Events      
T = Trace of Precipitation, MM = Missing Value Source: NWS Daily Summary

Daily Weather History Graph

Daily Weather History Graph

Search for Another Location

Airport or City:

Astronomy

Oct. 11, 2017 Rise Set
Actual Time 7:18 AM PDT 6:39 PM PDT
Civil Twilight 6:51 AM PDT 7:06 PM PDT
Nautical Twilight 6:20 AM PDT 7:37 PM PDT
Astronomical Twilight 5:49 AM PDT 8:08 PM PDT
Moon 11:50 PM PDT (10/11) 1:38 PM PDT (10/11)
Length of Visible Light 12h 14m
Length of Day
11h 20m
Waning Gibbous, 58% of the Moon is Illuminated
Oct 11
Waning Gibbous
Oct 12
Last Quarter
Oct 19
New
Oct 27
First Quarter
Nov 3
Full

Hourly Weather History & Observations

Time (PDT) Temp. Dew Point Humidity Pressure Visibility Wind Dir Wind Speed Gust Speed Precip Events Conditions
12:56 AM 50.0 °F 36.0 °F 59% 29.91 in 7.0 mi Calm Calm - N/A   Partly Cloudy
1:56 AM 48.0 °F 35.1 °F 61% 29.91 in 7.0 mi Calm Calm - N/A   Partly Cloudy
2:56 AM 46.9 °F 36.0 °F 66% 29.92 in 7.0 mi Calm Calm - N/A   Partly Cloudy
3:56 AM 45.0 °F 36.0 °F 71% 29.92 in 7.0 mi Calm Calm - N/A   Clear
4:56 AM 46.0 °F 37.0 °F 71% 29.93 in 4.0 mi Calm Calm - N/A   Haze
5:56 AM 46.9 °F 37.0 °F 68% 29.95 in 7.0 mi East 3.5 mph - N/A   Clear
6:56 AM 46.9 °F 36.0 °F 66% 29.97 in 10.0 mi Calm Calm - N/A   Clear
7:56 AM 45.0 °F 35.1 °F 68% 29.99 in 9.0 mi Calm Calm - N/A   Clear
8:56 AM 50.0 °F 36.0 °F 59% 30.03 in 8.0 mi Calm Calm - N/A   Clear
9:56 AM 57.0 °F 30.9 °F 37% 30.04 in 6.0 mi Calm Calm - N/A   Haze
10:56 AM 62.1 °F 24.1 °F 23% 30.04 in 10.0 mi NNW 16.1 mph 25.3 mph N/A   Clear
11:56 AM 64.0 °F 24.1 °F 22% 30.04 in 10.0 mi NNW 17.3 mph 27.6 mph N/A   Clear
12:56 PM 68.0 °F 23.0 °F 18% 30.03 in 10.0 mi North 15.0 mph 21.9 mph N/A   Clear
1:56 PM 68.0 °F 28.0 °F 22% 30.01 in 10.0 mi NW 8.1 mph 16.1 mph N/A   Clear
2:56 PM 66.9 °F 34.0 °F 30% 30.00 in 10.0 mi WNW 15.0 mph 21.9 mph N/A   Clear
3:56 PM 68.0 °F 33.1 °F 27% 30.00 in 10.0 mi WNW 18.4 mph 26.5 mph N/A   Clear
4:56 PM 64.9 °F 33.1 °F 31% 30.01 in 10.0 mi WNW 12.7 mph 25.3 mph N/A   Clear
5:56 PM 62.1 °F 33.1 °F 34% 30.02 in 10.0 mi WNW 11.5 mph 18.4 mph N/A   Clear
6:56 PM 57.9 °F 36.0 °F 44% 30.04 in 10.0 mi NNE 6.9 mph - N/A   Clear
7:56 PM 55.9 °F 35.1 °F 45% 30.06 in 10.0 mi Calm Calm - N/A   Clear
8:56 PM 53.1 °F 35.1 °F 50% 30.08 in 10.0 mi WNW 4.6 mph - N/A   Clear
9:56 PM 48.9 °F 34.0 °F 56% 30.09 in 10.0 mi Calm Calm - N/A   Clear
10:56 PM 48.0 °F 34.0 °F 58% 30.10 in 10.0 mi Calm Calm - N/A   Clear
11:56 PM 46.9 °F 35.1 °F 63% 30.11 in 10.0 mi Calm Calm - N/A   Clear